Regional Weather Roundup
Issued by NWS

Home | Current Version | Previous Version | Text Only | Print | Product List | Glossary Off
Versions: 1 2 3 4 5 6 7 8 9 10 11 12 13 14 15 16 17 18 19 20 21 22 23 24 25 26 27 28 29 30 31 32 33 34 35 36 37 38 39 40 41 42 43 44 45 46 47 48 49 50

000
ASUS43 KOAX 231410
RWRNE

WEATHER ROUNDUP FOR NEBRASKA
NATIONAL WEATHER SERVICE OMAHA NE
800 AM CST MON JAN 23 2017

NOTES: SATELLITE DATA IS BEING USED TO AUGMENT CLOUD COVER ABOVE
       12000 FEET.
       "FAIR" INDICATES FEW OR NO CLOUDS BELOW 12,000 FEET WITH NO
       SIGNIFICANT WEATHER AND/OR OBSTRUCTIONS TO VISIBILITY.

  * THESE STATIONS DO NOT REPORT WEATHER SUCH AS RAIN...SNOW OR FOG.

NEZ001>004-019>022-054>056-231500-
NEBRASKA PANHANDLE

CITY           SKY/WX    TMP DP  RH WIND       PRES   REMARKS
SCOTTSBLUFF    CLOUDY    26  21  81 E6        29.64F WCI  19
ALLIANCE       CLOUDY    27  25  92 SE5       29.64F WCI  22
CHADRON        CLOUDY    32  23  69 S8        29.66S WCI  25
KIMBALL        CLOUDY    28  24  82 CALM      29.62F
SIDNEY         CLOUDY    28  22  78 S6        29.65F WCI  22
$$

NEZ057>060-069>072-079>082-231500-
SOUTHWEST NEBRASKA

CITY           SKY/WX    TMP DP  RH WIND       PRES   REMARKS
NORTH PLATTE   CLOUDY    29  25  85 E8        29.75F WCI  21
IMPERIAL       MOCLDY    28  23  81 SE9       29.70F WCI  19
LEXINGTON      PTCLDY    30  27  86 SE7       29.79F WCI  23
MCCOOK         CLEAR     23  22  96 E6        29.77F WCI  16
OGALLALA       CLOUDY    31  27  82 SE3       29.71R
$$

NEZ005>010-023>029-035>040-094-231500-
NORTH CENTRAL NEBRASKA

CITY           SKY/WX    TMP DP  RH WIND       PRES   REMARKS
VALENTINE      CLOUDY    20  17  88 NE5       29.76S WCI  13
AINSWORTH      CLOUDY    24  23  98 E6        29.77S WCI  16
BROKEN BOW     CLOUDY    30  26  85 E5        29.78F WCI  25
O`NEILL        FOG       27  26  99 SE5       29.84F VSB 1/2 WCI  21
ORD            PTCLDY    25  22  88 SE3       29.83S
THEDFORD       CLOUDY    28  26  92 E3        29.75F
$$

NEZ041-046>049-061>064-073>077-083>087-231500-
SOUTH CENTRAL NEBRASKA

CITY           SKY/WX    TMP DP  RH WIND       PRES   REMARKS
GRAND ISLAND   FOG       26  26 100 E6        29.86F VSB 1/2 WCI  19
AURORA         FOG       26  26 100 E5        29.86F VSB<1/4 WCI  21
HASTINGS       CLOUDY    29  26  89 SE7       29.86F WCI  22
HEBRON         CLOUDY    25  25 100 CALM      29.88F
HOLDREGE       PTCLDY    28  26  91 SE7       29.81F WCI  21
KEARNEY *      CLOUDY    30  27  86 CALM      29.83S
YORK           FOG       27  27 100 CALM      29.87F VSB<1/4
$$

NEZ011>018-030>034-042>045-231500-
NORTHEAST NEBRASKA

CITY           SKY/WX    TMP DP  RH WIND       PRES   REMARKS
NORFOLK        CLOUDY    28  24  85 CALM      29.87F
ALBION         CLOUDY    27  24  90 SE3       29.86S FOG
BLAIR          CLOUDY    32  28  86 W3        29.89R
FREMONT        CLOUDY    32  29  90 CALM      29.89S
TEKAMAH        CLOUDY    32  27  81 NW5       29.90R WCI  27
WAYNE          CLOUDY    31  28  88 W7        29.89R WCI  24
$$

NEZ050>053-065>068-078-088>093-231500-
SOUTHEAST NEBRASKA

CITY           SKY/WX    TMP DP  RH WIND       PRES   REMARKS
LINCOLN        CLOUDY    30  27  88 N5        29.90F WCI  25
OMAHA EPPLEY   CLOUDY    32  26  78 NW8       29.90R WCI  25
BEATRICE       FOG       28  28 100 N5        29.89S VSB 3/4 WCI  23
FALLS CITY     CLOUDY    30  28  92 NW6       29.90S WCI  24
NEBRASKA CITY  CLOUDY    31  28  90 N5        29.89S WCI  26
PLATTSMOUTH    CLOUDY    31  26  82 NW6       29.89S WCI  25
$$

NEZ044-045-051>053-067-231500-
OMAHA AREA

CITY           SKY/WX    TMP DP  RH WIND       PRES   REMARKS
OMAHA EPPLEY   CLOUDY    32  26  78 NW8       29.90R WCI  25
BLAIR          CLOUDY    32  28  86 W3        29.89R
FREMONT        CLOUDY    32  29  90 CALM      29.89S
MILLARD        CLOUDY    34  29  83 CALM      29.90R
OFFUTT AFB     CLOUDY    31  31  99 NW6       29.90R WCI  26
PLATTSMOUTH    CLOUDY    31  26  82 NW6       29.89S WCI  25
WAHOO          CLOUDY    32  28  86 CALM      29.89F
$$



USA.gov is the U.S. government's official web portal to all federal, state and local government web resources and services.